Flag for Lebanon Weather past 2 weeks in Beirut, Lebanon

Now
68 °F

Passing clouds.


Feels Like: 68 °F
Forecast: 58 / 70 °F
Wind: 6 mph from Northeast

Location: Beirut Airport

Current Time: Feb 1, 2015 at 3:22:20 PM

Latest Report: Feb 1, 2015 at 2:00 PM


Visibility: N/A

Pressure: 30.09 "Hg

Humidity: 30%

Dew point: 36 °F

Location of BeirutLocation

Historic Weather in Beirut — Graph

°F

Beirut temperature yesterday

Maximum temperature yesterday: 66 °F (at 1:00 PM)
Minimum temperature yesterday: 57 °F (at 8:00 PM)
Average temperature yesterday: 61 °F

Past Weeks' High & Low Weather Summary

 TemperatureHumidityPressure
High72 °F (Jan 24, 2:00 PM)88% (Jan 30, 7:00 AM)30.36 "Hg (Jan 30, 7:00 AM)
Low52 °F (Jan 30, 7:00 AM)19% (Jan 26, 12:00 PM)29.86 "Hg (Jan 28, 5:00 AM)
Average60 °F55%30.12 "Hg
* Reported Jan 17 2:00 PM — Feb 1 2:00 PM, Beirut, Weather by CustomWeather, © 2014

Note: Actual official high and low records may vary slightly from our data, if they occured in-between our weather recording intervals... More about our weather records

Advertising

Beirut weather history for previous 24 hours

 ConditionsComfort  
Time TempWeatherWind HumidityBarometerVisibility
2:00 PM
Feb 1
68 °FPassing clouds.6 mph30%30.09 "HgN/A
1:00 PM66 °FPassing clouds.7 mph32%30.12 "HgN/A
12:00 PM66 °FSunny.7 mph32%30.12 "Hg10 mi
11:00 AM64 °FPassing clouds.3 mph43%30.15 "HgN/A
10:00 AM63 °FPassing clouds.3 mph42%30.15 "HgN/A
9:00 AM63 °FSunny.1 mph39%30.15 "Hg10 mi
8:00 AM55 °FSunny.5 mph44%30.18 "Hg10 mi
7:00 AM54 °FSunny.6 mph44%30.15 "Hg10 mi
6:00 AM54 °FClear.7 mph47%30.15 "Hg10 mi
5:00 AM54 °FClear.6 mph47%30.15 "Hg10 mi
4:00 AM54 °FClear.5 mph51%30.15 "Hg10 mi
3:00 AM55 °FClear.6 mph51%30.18 "Hg10 mi
2:00 AM55 °FClear.6 mph51%30.18 "Hg10 mi
1:00 AM55 °FClear.6 mph51%30.18 "Hg10 mi
12:00 AM55 °FPassing clouds.5 mph55%30.18 "HgN/A
11:00 PM
Jan 31
57 °FPassing clouds.5 mph55%30.21 "HgN/A
10:00 PM57 °FPassing clouds.5 mph55%30.21 "HgN/A
9:00 PM57 °FPassing clouds.3 mph59%30.18 "HgN/A
8:00 PM57 °FPassing clouds.3 mph59%30.18 "HgN/A
7:00 PM61 °FPassing clouds.7 mph55%30.15 "HgN/A
6:00 PM59 °FPassing clouds.9 mph59%30.15 "HgN/A
5:00 PM63 °FScattered clouds.13 mph52%30.15 "HgN/A
4:00 PM64 °FScattered clouds.13 mph49%30.15 "HgN/A
3:00 PM64 °FScattered clouds.15 mph49%30.15 "HgN/A
Weather by CustomWeather, © 2014

See weather overviewHow to use our weather pages